Location: D�nning
(49.2479°N, 12.8491°E)
Time: 05:32:21
(UTC+00:00)

SJ-6B - Pass Details

Date: 18 September 2020
Orbit: 511 x 580 km, 97.6° (Epoch: 22 October)

Event Time Altitude Azimuth Distance (km) Brightness Sun altitude
Exits shadow 19:21:18 18° 199° (SSW) 1,306 4.6 -20.6°
Maximum altitude 19:23:43 40° 261° (W) 764 3.9 -21.0°
Drops below altitude 10° 19:27:18 10° 333° (NNW) 1,754 6.2 -21.5°
Sets 19:29:30 0° 341° (NNW) 2,654 7.1 -21.8°
